Location: Eastchurch
(51.4000°N, 0.8667°E)
Time: 00:43:56
(UTC+00:00)

Cosmos 2322 Rocket - Pass Details

Date: 19 January 2026
Orbit: 832 x 849 km, 71.0° (Epoch: 18 February)

Event Time Altitude Azimuth Distance (km) Brightness Sun altitude
Rises 19:39:12 0° 331° (NNW) 3,415 5.8 -29.9°
Reaches altitude 10° 19:41:58 10° 342° (NNW) 2,474 4.9 -30.3°
Enters shadow 19:44:07 20° 358° (N) 1,851 4.0 -30.6°
